Miscellaneous Local Product
Issued by NWS Hastings, NE

Home | Current Version | Previous Version | Text Only | Print | Product List | Glossary On
Versions: 1 2 3 4 5 6 7 8 9 10 11 12 13 14 15 16 17 18 19 20 21 22 23 24 25 26 27 28 29 30 31 32 33 34 35 36 37 38 39 40 41 42 43 44 45 46 47 48 49 50
637
AXUS43 KGID 231802
MISGRI

GID CWA HOURLY WEATHER ROUNDUP
NATIONAL WEATHER SERVICE HASTINGS NE
1200 PM CST MON JAN 23 2017

NOTE: "FAIR" INDICATES FEW OR NO CLOUDS BELOW 12,000 FEET WITH NO
SIGNIFICANT WEATHER AND/OR OBSTRUCTIONS TO VISIBILITY.

...SOUTH CENTRAL NEBRASKA...

CITY           SKY/WX    TMP DP  RH WIND       PRES   REMARKS
GRAND ISLAND   CLOUDY    31  31 100 E7        29.81F FOG     WCI  24
HASTINGS       MOSUNNY   34  31  88 SE9       29.80F WCI  27
KEARNEY        MOSUNNY   39  32  75 E10       29.77F WCI  32
ORD            CLOUDY    31  28  89 SE7       29.78F WCI  24
YORK           CLOUDY    32  32 100 E7        29.84F FOG     WCI  26
AURORA         FOG       31  31 100 E7        29.81F VSB 1/4 WCI  24
LEXINGTON      CLOUDY    41  32  71 SE10      29.74F
HOLDREGE       SUNNY     43  32  65 SE13      29.75F
HEBRON         CLOUDY    33  33 100 E8        29.83F FOG     WCI  26

...NEBRASKA PANHANDLE...

CITY           SKY/WX    TMP DP  RH WIND       PRES   REMARKS
CHADRON        CLOUDY    39  25  57 SW3       29.63S
ALLIANCE       MOSUNNY   40  25  55 S5        29.61F
SCOTTSBLUFF    MOSUNNY   39  26  59 CALM      29.62F
SIDNEY         SUNNY     43  24  47 NW8       29.61F

...WESTERN AND NORTH CENTRAL NEBRASKA...

CITY           SKY/WX    TMP DP  RH WIND       PRES   REMARKS
VALENTINE      CLOUDY    34  29  82 NE7       29.70F WCI  28
AINSWORTH      CLOUDY    35  29  80 S12       29.72F WCI  27
ONEILL         CLOUDY    30  30 100 SE7       29.79F WCI  23
BROKEN BOW     CLOUDY    36  32  85 E8        29.73F WCI  30
IMPERIAL       SUNNY     42  27  55 S8        29.64F
NORTH PLATTE   PTSUNNY   42  31  64 E9        29.69F
MCCOOK         SUNNY     47  31  53 S16       29.68F

...EASTERN NEBRASKA...

CITY           SKY/WX    TMP DP  RH WIND       PRES   REMARKS
NORFOLK        CLOUDY    31  26  82 S6        29.84F WCI  25
SO SIOUX CITY  CLOUDY    34  29  82 W5        29.88F WCI  30
TEKAMAH        CLOUDY    33  27  78 E3        29.89F
COLUMBUS       CLOUDY    32  28  86 SE3       29.85F
ALBION         CLOUDY    29  27  90 CALM      29.82F FOG
OMAHA EPPLEY   CLOUDY    34  27  75 NE6       29.89F WCI  29
OFFUTT AFB     CLOUDY    35  31  88 E5        29.88F WCI  30
MILLARD        CLOUDY    37  30  75 CALM      29.88F
LINCOLN        CLOUDY    35  30  82 E5        29.88F WCI  31
NEBRASKA CITY  CLOUDY    33  28  83 E3        29.89F
BEATRICE       CLOUDY    32  32 100 SE5       29.87F FOG     WCI  27
FALLS CITY     CLOUDY    34  29  82 CALM      29.90F

...NORTHERN KANSAS...

CITY           SKY/WX    TMP DP  RH WIND       PRES   REMARKS
GOODLAND       SUNNY     46  28  49 S16       29.63F
HILL CITY      SUNNY     51  30  44 S20G25    29.73F
NORTON         CLEAR     48  27  43 SE15G22   29.71F
PHILLIPSBURG   SUNNY     45  32  61 E12       29.75F
SMITH CENTER   SUNNY     45  32  61 SE13      29.78F
HAYS           SUNNY     50  28  42 S18       29.76F
RUSSELL        SUNNY     49  30  48 S18       29.77F
CONCORDIA      SUNNY     46  32  58 S10       29.82F
SALINA         SUNNY     48  34  58 S12G20    29.86F
TOPEKA         FOG       34  32  92 CALM      29.92S VSB 3/4



USA.gov is the U.S. government's official web portal to all federal, state and local government web resources and services.